Flag for Germany Weather past 2 weeks in Konstanz, Baden-Württemberg, Germany

Now
62 °F

Overcast.


Feels Like: 62 °F
Forecast: 50 / 67 °F
Wind: 2 mph from Northeast

Location: Konstanz

Current Time: Sep 2, 2014 at 7:58:15 PM

Latest Report: Sep 2, 2014 at 7:00 PM


Visibility: 34 mi

Pressure: 30.11 "Hg

Humidity: 67%

Dew point: 50 °F

Location of KonstanzLocation

Historic Weather in Konstanz — Graph

°F

Konstanz temperature yesterday

Maximum temperature yesterday: 63 °F (at 5:00 PM)
Minimum temperature yesterday: 53 °F (at 7:00 AM)
Average temperature yesterday: 57 °F

Past Weeks' High & Low Weather Summary

 TemperatureHumidityPressure
High75 °F (Aug 30, 5:00 PM)99% (Aug 28, 1:00 AM)30.19 "Hg (Aug 28, 1:00 AM)
Low49 °F (Aug 25, 3:00 AM)38% (Aug 21, 5:00 PM)29.75 "Hg (Aug 26, 7:00 PM)
Average61 °F75%30.02 "Hg
* Reported Aug 18 6:00 PM — Sep 2 6:00 PM, Konstanz, Weather by CustomWeather, © 2014

Note: Actual official high and low records may vary slightly from our data, if they occured in-between our weather recording intervals... More about our weather records

Advertising

Konstanz weather history for previous 24 hours

 ConditionsComfort  
Time TempWeatherWind HumidityBarometerVisibility
6:00 PM
Sep 2
63 °FOvercast.2 mph64%30.10 "Hg25 mi
5:00 PM66 °FPartly sunny.1 mph57%30.09 "Hg22 mi
4:00 PM63 °FOvercast.1 mph62%30.11 "Hg17 mi
3:00 PM64 °FOvercast.2 mph58%30.11 "Hg22 mi
2:00 PM65 °FOvercast.2 mph56%30.11 "Hg19 mi
1:00 PM62 °FOvercast.2 mph67%30.12 "Hg17 mi
12:00 PM63 °FPassing clouds.2 mph64%30.12 "Hg14 mi
11:00 AM60 °FPartly sunny.1 mph72%30.14 "Hg11 mi
10:00 AM58 °FOvercast.1 mph80%30.14 "Hg11 mi
9:00 AM56 °FLow clouds.1 mph85%30.14 "Hg9 mi
8:00 AM54 °FLow clouds.No wind91%30.15 "Hg8 mi
7:00 AM53 °FLow clouds.1 mph92%30.15 "Hg7 mi
6:00 AM53 °FLow clouds.2 mph94%30.15 "Hg6 mi
5:00 AM52 °FOvercast.1 mph95%30.15 "Hg10 mi
4:00 AM52 °FClear.1 mph94%30.15 "Hg11 mi
3:00 AM52 °FClear.1 mph91%30.16 "Hg15 mi
2:00 AM53 °FClear.2 mph90%30.16 "Hg17 mi
1:00 AM56 °FOvercast.1 mph83%30.16 "Hg22 mi
12:00 AM57 °FOvercast.2 mph76%30.16 "Hg28 mi
11:00 PM
Sep 1
57 °FOvercast.2 mph86%30.16 "Hg19 mi
10:00 PM58 °FOvercast.1 mph78%30.16 "Hg19 mi
9:00 PM58 °FOvercast.No wind74%30.16 "Hg12 mi
8:00 PM60 °FOvercast.1 mph70%30.14 "Hg37 mi
7:00 PM61 °FOvercast.1 mph66%30.14 "Hg37 mi
Weather by CustomWeather, © 2014

See weather overviewHow to use our weather pages